{"data":{"norad_id":48000,"epoch":"2026-05-24T23:56:10.423104Z","epoch_age_seconds":76054,"freshness":"FRESH","line1":"1 48000U 21024Z   26144.99734286  .00044336  00000+0  10961-2 0  9994","line2":"2 48000  53.1280 244.7377 0003786 316.0982  43.9722 15.40052813287553","mean_motion":15.40052813,"eccentricity":0.0003786,"inclination_deg":53.128,"raan_deg":244.7377,"arg_perigee_deg":316.0982,"mean_anomaly_deg":43.9722,"bstar":0.0010961,"rev_number":28755,"period_min":93.503286890201,"perigee_km":443.36970067257,"apogee_km":448.53690184868,"semimajor_km":6824.0903012606,"source":"CELESTRAK","updated_at":"2026-05-25T13:38:16.639200Z"}}